Regional Weather Roundup
Issued by NWS Goodland, KS

Home | Current Version | Previous Version | Text Only | Print | Product List | Glossary On
Versions: 1 2 3 4 5 6 7 8 9 10 11 12 13 14 15 16 17 18 19 20 21 22 23 24 25 26 27 28 29 30 31 32 33 34 35 36 37 38 39 40 41 42 43 44 45 46 47 48 49 50
000
ASUS43 KGLD 261808
RWRGLD

GOODLAND FORECAST AREA HOURLY WEATHER ROUNDUP
NATIONAL WEATHER SERVICE GOODLAND KS
1100 AM MST SUN FEB 26 2017

...OFFICIAL OBSERVATIONS...

CITY           SKY/WX    TMP DP  RH WIND       PRES   REMARKS
GOODLAND KS    SUNNY     39   7  26 SE5       29.90S
HILL CITY KS   SUNNY     45   8  22 NW8       29.95F
IMPERIAL NEB   SUNNY     36  11  35 NW18      29.92F
MCCOOK NEB     SUNNY     41  10  28 W20       29.94S
AKRON CO       SUNNY     31  11  43 SE10      29.86F
BURLINGTON CO  SUNNY     39   9  29 E6G17     29.88S
LIMON CO       SUNNY     33   2  26 S12       29.83S
$$

...UNOFFICIAL OBSERVATIONS...

CITY           SKY/WX    TMP DP  RH WIND       PRES   REMARKS
LENORA KS        N/A     41  32  70 N13         N/A
SHARON SPRINGS   N/A     41  11  28 E9          N/A
TRENTON NEB      N/A     37  32  82 NW9         N/A
KIT CARSON CO    N/A     36  11  35 MISG        N/A
YUMA CO        FAIR      32  10  40 CALM      29.89F
$$



USA.gov is the U.S. government's official web portal to all federal, state and local government web resources and services.